CW7566 Weather Reports


time (UTC)temp
C
wind
direction
speed
KPH
gust
KPH
rain 1hr
cm
rain 24hr
cm
rain mn
cm
humidity
%
barometer
mb
20260505065655 11 237 0.0 0.0 0.00 0.00 0.00 68 1018.2
20260505064703 11 237 0.0 0.0 0.00 0.00 0.00 68 1018.4
20260505063716 11 237 0.0 0.0 0.00 0.00 0.00 68 1018.4
20260505062652 11 237 0.0 0.0 0.00 0.00 0.00 69 1018.5
20260505060645 11 237 0.0 1.6 0.00 0.00 0.00 69 1018.6
20260505055648 11 237 0.0 1.6 0.00 0.00 0.00 69 1018.7
20260505053700 11 238 1.6 4.8 0.00 0.00 0.00 69 1018.7
20260505052654 11 162 0.0 0.0 0.00 0.00 0.00 68 1018.9
20260505051714 11 162 0.0 0.0 0.00 0.00 0.00 67 1018.8
20260505050704 12 162 0.0 0.0 0.00 0.00 0.00 67 1018.7
20260505041704 12 164 0.0 0.0 0.00 0.00 0.00 64 1018.7
20260505035702 13 163 0.0 3.2 0.00 0.00 0.00 63 1018.8
20260505034708 13 163 0.0 0.0 0.00 0.00 0.00 63 1018.8
20260505033718 13 163 0.0 3.2 0.00 0.00 0.00 63 1019.0
20260505032647 13 164 0.0 0.0 0.00 0.00 0.00 63 1019.0
20260505031716 13 163 0.0 0.0 0.00 0.00 0.00 61 1019.1
20260505025649 13 164 0.0 0.0 0.00 0.00 0.00 60 1019.1
20260505024713 14 164 0.0 0.0 0.00 0.00 0.00 60 1019.0
20260505022657 14 165 0.0 0.0 0.00 0.00 0.00 57 1019.1
20260505021703 14 129 0.0 0.0 0.00 0.00 0.00 57 1019.1
20260505020649 14 129 0.0 6.4 0.00 0.00 0.00 56 1018.8
20260505015719 14 142 0.0 0.0 0.00 0.00 0.00 57 1018.8
20260505013720 15 101 0.0 3.2 0.00 0.00 0.00 56 1018.7
20260505012713 15 15 0.0 3.2 0.00 0.00 0.00 55 1018.5
20260505005704 16 15 0.0 0.0 0.00 0.00 0.00 52 1018.4
20260505004729 16 15 1.6 6.4 0.00 0.00 0.00 50 1018.3
20260505003644 16 287 0.0 0.0 0.00 0.00 0.00 49 1018.2
20260505002702 17 287 0.0 0.0 0.00 0.00 0.00 47 1018.0
20260505001657 17 287 0.0 1.6 0.00 0.00 0.00 46 1018.0
20260505000650 18 287 0.0 0.0 0.00 0.00 0.00 45 1018.0
20260504235647 18 287 0.0 0.0 0.00 0.00 0.00 44 1018.0
20260504234700 18 287 0.0 0.0 0.00 0.00 0.00 43 1017.8
20260504233710 18 287 0.0 3.2 0.00 0.00 0.00 40 1017.8
20260504231708 19 287 0.0 4.8 0.00 0.00 0.00 36 1017.7
20260504230700 19 242 0.0 3.2 0.00 0.00 0.00 39 1017.6
20260504225655 20 242 0.0 3.2 0.00 0.00 0.00 34 1017.6
20260504224710 20 243 0.0 0.0 0.00 0.00 0.00 35 1017.6
20260504221651 21 332 3.2 8.0 0.00 0.00 0.00 31 1017.7
20260504220645 22 276 0.0 6.4 0.00 0.00 0.00 33 1017.6
20260504215658 22 276 3.2 11.3 0.00 0.00 0.00 33 1017.6
20260504214709 23 271 3.2 8.0 0.00 0.00 0.00 31 1017.5
20260504213701 23 280 3.2 11.3 0.00 0.00 0.00 32 1017.5
20260504212644 23 284 3.2 8.0 0.00 0.00 0.00 31 1017.4
20260504211657 24 279 4.8 12.9 0.00 0.00 0.00 29 1017.4
20260504210653 25 294 3.2 11.3 0.00 0.00 0.00 30 1017.3
20260504204654 25 279 0.0 6.4 0.00 0.00 0.00 27 1017.3
20260504203704 24 277 3.2 6.4 0.00 0.00 0.00 29 1017.3
20260504202640 25 259 0.0 6.4 0.00 0.00 0.00 27 1017.4
20260504201656 25 266 0.0 4.8 0.00 0.00 0.00 28 1017.4
20260504195654 26 279 3.2 6.4 0.00 0.00 0.00 30 1017.6
20260504193707 25 323 0.0 4.8 0.00 0.00 0.00 32 1017.9
20260504192649 24 339 0.0 11.3 0.00 0.00 0.00 31 1017.9
20260504191703 24 202 1.6 6.4 0.00 0.00 0.00 32 1018.1
20260504190711 23 156 3.2 4.8 0.00 0.00 0.00 33 1018.2
20260504185656 23 175 3.2 6.4 0.00 0.00 0.00 35 1018.3
20260504184644 23 251 3.2 6.4 0.00 0.00 0.00 35 1018.2
20260504183714 22 223 3.2 6.4 0.00 0.00 0.00 36 1018.3
20260504182646 21 252 0.0 4.8 0.00 0.00 0.00 38 1018.3
20260504181719 21 163 3.2 4.8 0.00 0.00 0.00 38 1018.5
20260504175642 20 295 3.2 8.0 0.00 0.00 0.00 42 1018.6
20260504174656 20 231 1.6 6.4 0.00 0.00 0.00 39 1018.6
20260504173644 19 196 0.0 4.8 0.00 0.00 0.00 40 1018.8
20260504172648 18 286 3.2 8.0 0.00 0.00 0.00 41 1018.8
20260504171701 18 317 1.6 9.7 0.00 0.00 0.00 39 1019.0
20260504170654 17 170 1.6 6.4 0.00 0.00 0.00 38 1019.0
20260504150653 13 210 0.0 3.2 0.00 0.00 0.00 63 1020.5
20260504140715 9 47 0.0 0.0 0.00 0.00 0.00 72 1020.6
20260504130700 5 45 0.0 0.0 0.00 0.00 0.00 84 1020.3
20260504080708 4 37 0.0 0.0 0.00 0.00 0.00 79 1019.4